Location: Newark
(34.1333°N, 7.9667°W)
Time: 09:14:44
(UTC+00:00)

S-56A Canister/Altair - Pass Details

Date: 13 December 2021
Orbit: 634 x 2499 km, 38.9° (Epoch: 25 January)

Event Time Altitude Azimuth Distance (km) Brightness Sun altitude
Rises 21:35:54 0° 250° (WSW) 6,156 12.7 -51.3°
Reaches altitude 10° 21:40:05 10° 251° (WSW) 5,077 12.1 -52.2°
Enters shadow 21:49:23 46° 255° (WSW) 2,763 10.3 -54.1°
